Regional Weather Roundup
Issued by NWS Boston, MA

Home | Current Version | Previous Version | Text Only | Print | Product List | Glossary On
Versions: 1 2 3 4 5 6 7 8 9 10 11 12 13 14 15 16 17 18 19 20 21 22 23 24 25 26 27 28
000
ASUS41 KBOX 232010
RWRBOX

REGIONAL WEATHER ROUNDUP
NATIONAL WEATHER SERVICE TAUNTON MA
400 PM EDT SAT JUL 23 2016

NOTE:  "FAIR" INDICATES FEW OR NO CLOUDS BELOW 12,000 FEET WITH NO
SIGNIFICANT WEATHER AND/OR OBSTRUCTIONS TO VISIBILITY.  THE FOLLOWING
OBSERVATION LOCATIONS DO NOT REPORT PRESENT WEATHER...PROVINCETOWN...
SMITHFIELD...BLOCK ISLAND...KEENE...AND OXFORD.

MAZALL-232100-
EASTERN MASSACHUSETTS

CITY           SKY/WX    TMP DP  RH WIND       PRES   REMARKS
BOSTON         PTSUNNY   84  63  49 SE15      29.70F
BEVERLY        PTSUNNY   87  66  49 SE8       29.71S
LAWRENCE       SUNNY     96  55  25 NW10G21   29.71F HX  94
BEDFORD        SUNNY     95  50  21 NW17G23   29.70S HX  92
BLUE HILL        N/A     94  55  26 W17G31    29.73F HX  92
NORWOOD        MOSUNNY   94  58  29 W14       29.70F HX  93
MARSHFIELD     MOSUNNY   84  66  54 SE7G15    29.71F
PLYMOUTH       MOSUNNY   93  60  33 W14       29.72F HX  93
TAUNTON        MOSUNNY   94  59  31 W8        29.71F HX  93
NEW BEDFORD    SUNNY     92  64  39 W14       29.73S HX  93
$$

MAZALL-232100-
CAPE COD AND THE ISLANDS

CITY           SKY/WX    TMP DP  RH WIND       PRES   REMARKS
FALMOUTH       MOSUNNY   88  68  51 MISG        N/A  HX  91
HYANNIS        MOSUNNY   85  69  58 S12       29.72F
CHATHAM        SUNNY     83  70  64 S9        29.76S
PROVINCETOWN   MOSUNNY   85  65  51 SE7       29.73F
NANTUCKET      SUNNY     80  68  66 W16G24    29.77S
MARTHAS VNYRD  SUNNY     87  67  51 W8        29.75F HX  90
$$

MAZALL-232100-
CENTRAL AND WESTERN MASSACHUSETTS

CITY           SKY/WX    TMP DP  RH WIND       PRES   REMARKS
WORCESTER      MOSUNNY   88  52  29 W18       29.79F
FITCHBURG      SUNNY     95  53  24 W12G22    29.74F HX  92
ORANGE         MOSUNNY   90  55  30 W16G24    29.76F
SPRINGFIELD    SUNNY     94  54  26 W17G29    29.75S HX  91
WESTFIELD      MOSUNNY   95  53  24 W14G25    29.76F HX  92
NORTH ADAMS    MOSUNNY   84  61  45 VRB6      29.79F
PITTSFIELD     MOSUNNY   87  56  34 W17       29.82F
$$

RIZALL-232100-
RHODE ISLAND

CITY           SKY/WX    TMP DP  RH WIND       PRES   REMARKS
PROVIDENCE     MOSUNNY   93  60  33 W13       29.75F HX  93
NEWPORT        SUNNY     91  62  37 W10G18    29.75F HX  91
BLOCK ISLAND   SUNNY     85  65  51 W15G21    29.79F
SMITHFIELD     SUNNY    N/A N/A N/A NW13G24   29.75F
WESTERLY       MOSUNNY   89  61  38 SW10G23   29.78S
$$

CTZALL-232100-
CONNECTICUT

CITY           SKY/WX    TMP DP  RH WIND       PRES   REMARKS
BRADLEY INTL   MOSUNNY   95  57  27 NW9       29.76F HX  94
HARTFORD       SUNNY     94  59  31 NW5       29.76F HX  93
BRIDGEPORT     SUNNY     96  57  27 W12G26    29.79F HX  95
DANBURY        SUNNY     92  57  30 W13G21    29.83F HX  90
GROTON         MOSUNNY   89  64  43 W15G22    29.77F HX  90
NEW HAVEN      MOSUNNY   91  60  35 VRB7      29.79F HX  90
CHESTER        FAIR      93  57  29 NW10G17   29.80S HX  92
MERIDEN        MOSUNNY   94  59  31 W8        29.78F HX  93
WILLIMANTIC    NOT AVBL
OXFORD         PTSUNNY   90  59  35 NW9G17    29.85
$$

MEZ002-015-021-024-NHZ003-005-008-011-012-014-VTZ005-008-232100-
NORTHERN NEW ENGLAND

CITY           SKY/WX    TMP DP  RH WIND       PRES   REMARKS
PORTLAND ME    PTSUNNY   83  65  54 S8        29.71F
BANGOR ME      TSTM      85  60  42 NW13      29.69R
CONCORD NH     PTSUNNY   94  57  28 W16G22    29.72S HX  92
MANCHESTER NH  PTSUNNY   92  55  28 NW12      29.70F HX  90
NASHUA NH      MOSUNNY   94  58  29 NW15      29.71F HX  93
PORTSMOUTH NH  PTSUNNY   84  65  52 SE10      29.69S
JAFFREY NH     MOSUNNY   89  55  31 NW7G18    29.79S
KEENE NH       CLOUDY    88  61  40 NW9       29.77S
BURLINGTON VT  TSTM      66  62  87 N20G31    29.87R FOG
MT. WASHINGTON TSTM      48  48 100 N21         N/A  VSB 1/16
$$

NYZ052-076-232100-
EASTERN NEW YORK

CITY           SKY/WX    TMP DP  RH WIND       PRES   REMARKS
ALBANY         MOSUNNY   90  59  35 W14       29.80R
NEW YORK CITY  MOSUNNY   95  56  26 NW14G24   29.81S HX  93
$$

ANZALL-232100-
MARINE OBSERVATIONS

STATION/POSITION TIME  TEMP    WIND        PRES    VSBY  WAVE
                       AIR SEA DIR/SP/G                  HT/PER
                 (UTC) (F)     (DEG/KT/KT) (MB)    (MI)  (FT/S)
BOSTON BUOY      1950   76 74  130/ 12/ 12 1005.8F         1
BUZZARDS BAY     1900   76     270/ 23/ 24 1007.7F
NANTUCKET SOUND  1950   75 74  230/ 16/ 17 1006.8F         1/ 3
MASS BAY-STELLWA 1904   73 69  140/  8/ 10 1006.1F  1 7/8  1/ 4
ISLE OF SHOALS   2000   74     150/ 18/ 19 1005.6F
S OF BLOCK IS    1925      72                N/A           4/ 7
$$

......................KEY.........................
  SKY/WX - SKY CONDITION/PRESENT WEATHER
  TMP    - TEMPERATURE IN FAHRENHEIT
  DWPT   - DEWPOINT IN FAHRENHEIT
  RH     - RELATIVE HUMIDITY IN PERCENT
  WIND   - DIRECTION AND SPEED IN MPH
  PRES   - MEAN SEA LEVEL PRESSURE IN INCHES OF HG
  WCI    - WIND CHILL INDEX
  VSB    - VISIBILITY IN MILES
  HX     - HEAT INDEX
  TC     - TEMPERATURE IN CELSIUS
  VRB    - VARIABLE WIND DIRECTION
  N/A    - NOT AVAILABLE




USA.gov is the U.S. government's official web portal to all federal, state and local government web resources and services.